K9DC Weather Reports


Display with metric or nautical units.
time (UTC)temp
F
wind
direction
speed
MPH
gust
MPH
rain 1hr
in
rain 24hr
in
rain mn
in
humidity
%
barometer
mb
20260507185503 62 289 5.0 15.0 0.00 0.01 0.00 35 1014.0
20260507185004 62 296 6.0 15.0 0.00 0.01 0.00 36 1014.0
20260507184504 62 300 5.0 13.0 0.00 0.01 0.00 35 1014.0
20260507184004 62 279 4.0 13.0 0.00 0.01 0.00 41 1014.0
20260507183503 62 270 6.0 12.0 0.00 0.01 0.00 40 1014.0
20260507183004 61 264 8.0 15.0 0.00 0.01 0.00 37 1013.9
20260507182504 61 263 6.0 15.0 0.00 0.01 0.00 36 1014.0
20260507182004 61 304 4.0 11.0 0.00 0.01 0.00 38 1014.2
20260507181503 61 302 6.0 14.0 0.00 0.01 0.00 37 1014.1
20260507181003 61 300 4.0 14.0 0.00 0.01 0.00 38 1014.1
20260507180505 62 308 2.0 8.0 0.00 0.01 0.00 37 1014.2
20260507180004 61 317 2.0 8.0 0.00 0.01 0.00 35 1014.1
20260507175504 61 313 3.0 10.0 0.00 0.01 0.00 38 1014.3
20260507175004 61 291 6.0 15.0 0.00 0.01 0.00 37 1014.6
20260507174504 61 289 6.0 16.0 0.00 0.01 0.00 38 1014.6
20260507174005 61 296 4.0 16.0 0.00 0.01 0.00 42 1014.6
20260507173505 60 302 5.0 12.0 0.00 0.01 0.00 38 1014.7
20260507173004 60 313 5.0 12.0 0.00 0.01 0.00 38 1014.7
20260507172504 60 321 3.0 9.0 0.00 0.01 0.00 40 1014.7
20260507172004 60 315 4.0 13.0 0.00 0.01 0.00 38 1014.8
20260507171504 60 307 5.0 13.0 0.00 0.01 0.00 38 1014.9
20260507171003 60 299 5.0 15.0 0.00 0.01 0.00 40 1014.9
20260507170503 60 298 5.0 16.0 0.00 0.01 0.00 38 1014.9
20260507170004 59 300 6.0 16.0 0.00 0.01 0.00 39 1015.0
20260507165504 59 277 6.0 13.0 0.00 0.01 0.00 40 1015.1
20260507165003 59 272 5.0 11.0 0.00 0.01 0.00 39 1015.2
20260507164503 59 300 5.0 14.0 0.00 0.01 0.00 39 1015.2
20260507164004 59 307 5.0 14.0 0.00 0.01 0.00 38 1015.2
20260507163505 59 305 6.0 15.0 0.00 0.01 0.00 40 1015.3
20260507163003 59 294 6.0 15.0 0.00 0.01 0.00 39 1015.4
20260507162503 59 301 5.0 13.0 0.00 0.01 0.00 41 1015.4
20260507162003 40 311 5.0 13.0 0.00 0.01 0.00 78 1015.5
20260507161503 40 315 4.0 10.0 0.00 0.01 0.00 78 1015.5
20260507161004 40 311 4.0 11.0 0.00 0.01 0.00 78 1015.5
20260507160504 40 309 5.0 14.0 0.00 0.01 0.00 78 1015.5
20260507160003 40 297 6.0 14.0 0.00 0.01 0.00 78 1015.6
20260507155503 40 287 4.0 13.0 0.00 0.01 0.00 78 1015.5
20260507155004 40 302 5.0 13.0 0.00 0.01 0.00 78 1015.5
20260507154504 40 304 5.0 13.0 0.00 0.01 0.00 78 1015.5
20260507154004 40 303 3.0 13.0 0.00 0.01 0.00 78 1015.4
20260507153504 40 303 4.0 17.0 0.00 0.01 0.00 78 1015.5
20260507153004 40 304 4.0 17.0 0.00 0.01 0.00 78 1015.6
20260507152503 40 310 2.0 10.0 0.00 0.01 0.00 78 1015.5
20260507152004 40 306 3.0 11.0 0.00 0.01 0.00 78 1015.5
20260507151504 40 294 5.0 13.0 0.00 0.01 0.00 78 1015.5
20260507151003 40 292 7.0 13.0 0.00 0.01 0.00 78 1015.4
20260507150503 40 301 6.0 12.0 0.00 0.01 0.00 78 1015.4
20260507150003 40 305 4.0 11.0 0.00 0.01 0.00 78 1015.4
20260507145504 40 309 3.0 11.0 0.00 0.01 0.00 78 1015.4
20260507145004 40 319 3.0 11.0 0.00 0.01 0.00 78 1015.4
20260507144503 40 301 5.0 13.0 0.00 0.01 0.00 78 1015.5
20260507144003 40 291 6.0 13.0 0.00 0.01 0.00 78 1015.5
20260507143503 40 293 3.0 13.0 0.00 0.01 0.00 78 1015.5
20260507143003 40 313 4.0 10.0 0.00 0.01 0.00 78 1015.5
20260507142505 40 312 4.0 10.0 0.00 0.01 0.00 78 1015.5
20260507142004 40 313 3.0 10.0 0.00 0.01 0.00 78 1015.5
20260507141504 40 318 5.0 16.0 0.00 0.01 0.00 78 1015.5
20260507141003 40 307 5.0 16.0 0.00 0.01 0.00 78 1015.6
20260507140504 40 301 4.0 10.0 0.00 0.01 0.00 78 1015.6
20260507140006 40 313 2.0 9.0 0.00 0.01 0.00 78 1015.5
20260507135504 40 317 2.0 9.0 0.00 0.01 0.00 78 1015.6
20260507135003 40 317 3.0 9.0 0.00 0.01 0.00 78 1015.5
20260507134504 40 308 5.0 11.0 0.00 0.01 0.00 78 1015.6
20260507134004 40 297 5.0 11.0 0.00 0.01 0.00 78 1015.5
20260507133503 40 293 3.0 9.0 0.00 0.01 0.00 78 1015.5
20260507133007 40 306 2.0 8.0 0.00 0.01 0.00 78 1015.5
20260507132503 40 308 2.0 8.0 0.00 0.01 0.00 78 1015.5
20260507132003 40 299 1.0 7.0 0.00 0.01 0.00 78 1015.6
20260507131505 40 297 1.0 4.0 0.00 0.01 0.00 78 1015.5
20260507131006 40 297 1.0 4.0 0.00 0.01 0.00 78 1015.5
20260507130504 40 296 2.0 6.0 0.00 0.01 0.00 78 1015.5
20260507130004 40 302 3.0 7.0 0.00 0.01 0.00 78 1015.5
20260507125504 40 311 2.0 7.0 0.00 0.01 0.00 78 1015.5
20260507125003 40 318 1.0 4.0 0.00 0.01 0.00 78 1015.5
20260507124504 40 317 2.0 5.0 0.00 0.01 0.00 78 1015.5
20260507124004 40 320 2.0 5.0 0.00 0.01 0.00 78 1015.5
20260507123503 40 323 1.0 5.0 0.00 0.02 0.00 78 1015.5
20260507123003 40 325 1.0 4.0 0.00 0.02 0.00 78 1015.5
20260507122504 40 326 1.0 3.0 0.00 0.02 0.00 78 1015.4
20260507122004 40 326 1.0 3.0 0.00 0.02 0.00 78 1015.3
20260507121503 40 326 1.0 3.0 0.00 0.02 0.00 78 1015.2
20260507121005 40 326 0.0 1.0 0.00 0.02 0.00 78 1015.2
20260507120503 40 326 0.0 1.0 0.00 0.02 0.00 78 1015.2
20260507120005 40 326 0.0 1.0 0.00 0.02 0.00 78 1015.2
20260507115504 40 326 1.0 3.0 0.00 0.02 0.00 78 1015.2
20260507115004 40 326 1.0 3.0 0.00 0.02 0.00 78 1015.2
20260507114503 40 326 1.0 3.0 0.00 0.02 0.00 78 1015.2
20260507114003 40 326 1.0 3.0 0.00 0.02 0.00 78 1015.1
20260507113503 40 326 1.0 3.0 0.00 0.02 0.00 78 1015.0
20260507113005 40 326 1.0 3.0 0.00 0.02 0.00 78 1015.0
20260507112504 40 326 1.0 3.0 0.00 0.02 0.00 78 1014.9
20260507112003 40 326 1.0 3.0 0.00 0.02 0.00 78 1014.9
20260507111506 40 326 1.0 3.0 0.00 0.02 0.00 78 1014.9
20260507111004 40 326 1.0 3.0 0.00 0.02 0.00 78 1014.8
20260507110504 40 326 1.0 3.0 0.00 0.02 0.00 78 1014.8
20260507110004 40 326 1.0 3.0 0.00 0.02 0.00 78 1014.8
20260507105503 40 326 1.0 3.0 0.00 0.03 0.00 78 1014.9
20260507105003 40 326 1.0 3.0 0.00 0.03 0.00 78 1014.9
20260507104504 40 326 1.0 3.0 0.00 0.03 0.00 78 1014.9
20260507104003 40 326 1.0 3.0 0.00 0.03 0.00 78 1014.9
20260507103505 40 326 1.0 3.0 0.00 0.03 0.00 78 1015.0
20260507103004 40 326 1.0 3.0 0.00 0.03 0.00 78 1015.0
20260507102503 40 326 1.0 3.0 0.00 0.03 0.00 78 1014.9
20260507102006 40 326 1.0 3.0 0.00 0.03 0.00 78 1015.0
20260507101503 40 326 1.0 3.0 0.00 0.03 0.00 78 1015.0
20260507101004 40 326 1.0 3.0 0.00 0.03 0.00 78 1015.0
20260507100504 40 326 1.0 3.0 0.00 0.03 0.00 78 1015.0
20260507100004 40 326 1.0 3.0 0.00 0.03 0.00 78 1014.9
20260507095503 40 326 1.0 3.0 0.00 0.03 0.00 78 1014.9
20260507095004 40 326 1.0 3.0 0.00 0.03 0.00 78 1014.9
20260507094506 40 326 1.0 3.0 0.00 0.03 0.00 78 1014.8
20260507094003 40 326 1.0 3.0 0.00 0.03 0.00 78 1014.8
20260507093503 40 326 1.0 3.0 0.00 0.03 0.00 78 1014.8
20260507093003 40 326 1.0 3.0 0.00 0.03 0.00 78 1014.8
20260507092503 40 326 1.0 3.0 0.00 0.03 0.00 78 1014.7
20260507092004 40 326 1.0 3.0 0.00 0.03 0.00 78 1014.6
20260507091504 40 326 1.0 3.0 0.00 0.03 0.00 78 1014.6
20260507091006 40 326 1.0 3.0 0.00 0.04 0.00 78 1014.7
20260507090505 40 326 1.0 3.0 0.00 0.04 0.00 78 1014.7
20260507090005 40 326 1.0 3.0 0.00 0.04 0.00 78 1014.9
20260507085504 40 326 1.0 3.0 0.00 0.04 0.00 78 1014.9
20260507085003 40 326 1.0 3.0 0.00 0.04 0.00 78 1014.9
20260507084503 40 326 1.0 3.0 0.00 0.04 0.00 78 1014.8
20260507084004 40 326 1.0 3.0 0.00 0.04 0.00 78 1014.8
20260507083504 40 326 1.0 3.0 0.00 0.04 0.00 78 1014.7
20260507083004 40 326 1.0 3.0 0.00 0.04 0.00 78 1014.7
20260507082503 40 326 1.0 3.0 0.00 0.04 0.00 78 1014.6
20260507082004 40 326 1.0 3.0 0.00 0.04 0.00 78 1014.7
20260507081505 40 326 1.0 3.0 0.00 0.04 0.00 78 1014.6
20260507081003 40 326 1.0 3.0 0.00 0.04 0.00 78 1014.6
20260507080503 40 326 1.0 3.0 0.00 0.04 0.00 78 1014.6
20260507080003 40 326 1.0 3.0 0.00 0.04 0.00 78 1014.6
20260507075504 40 326 1.0 3.0 0.00 0.04 0.00 78 1014.5
20260507075004 41 326 1.0 3.0 0.00 0.05 0.00 78 1014.6
20260507074504 41 326 1.0 3.0 0.00 0.05 0.00 77 1014.6
20260507074003 41 326 1.0 3.0 0.00 0.05 0.00 77 1014.7
20260507073503 41 326 1.0 3.0 0.00 0.05 0.00 77 1014.6
20260507073003 41 326 1.0 3.0 0.00 0.05 0.00 77 1014.6
20260507072504 42 326 1.0 3.0 0.00 0.05 0.00 77 1014.6
20260507072004 42 326 1.0 3.0 0.00 0.05 0.00 76 1014.6
20260507071504 42 326 1.0 3.0 0.00 0.05 0.00 76 1014.7
20260507071003 42 326 1.0 3.0 0.00 0.05 0.00 76 1014.6
20260507070504 42 326 1.0 3.0 0.00 0.05 0.00 76 1014.7
20260507070007 42 326 1.0 3.0 0.00 0.05 0.00 75 1014.7
20260507065503 43 326 1.0 3.0 0.00 0.05 0.00 75 1014.7
20260507065003 43 326 1.0 3.0 0.00 0.05 0.00 74 1014.8
20260507064504 43 325 1.0 5.0 0.00 0.05 0.00 74 1014.7
20260507064004 43 325 1.0 5.0 0.00 0.05 0.00 74 1014.8
20260507063503 43 326 2.0 5.0 0.00 0.05 0.00 74 1014.9
20260507063003 44 326 1.0 4.0 0.00 0.05 0.00 74 1015.0
20260507062504 44 326 1.0 4.0 0.00 0.05 0.00 73 1015.0
20260507062006 44 325 1.0 4.0 0.00 0.05 0.00 73 1015.0
20260507061504 44 326 1.0 5.0 0.00 0.05 0.00 73 1015.0
20260507061003 44 325 1.0 5.0 0.00 0.05 0.00 73 1015.0
20260507060503 44 325 1.0 5.0 0.00 0.05 0.00 73 1015.1
20260507060003 44 325 1.0 4.0 0.00 0.05 0.00 73 1015.0
20260507055504 44 326 1.0 4.0 0.00 0.05 0.00 73 1015.0
20260507055005 44 325 1.0 7.0 0.00 0.05 0.00 73 1015.0
20260507054503 44 324 2.0 10.0 0.00 0.05 0.00 73 1014.9
20260507054004 44 323 1.0 10.0 0.00 0.05 0.00 73 1014.9
20260507053503 44 318 1.0 9.0 0.00 0.05 0.00 74 1014.9
20260507053004 44 316 2.0 9.0 0.00 0.05 0.00 75 1014.9
20260507052504 44 318 2.0 8.0 0.00 0.05 0.00 76 1014.9
20260507052003 43 319 3.0 11.0 0.00 0.05 0.00 77 1014.8
20260507051503 43 319 4.0 12.0 0.00 0.05 0.00 79 1014.7
20260507051003 43 317 4.0 12.0 0.00 0.05 0.00 80 1014.7
20260507050504 43 315 3.0 10.0 0.00 0.05 0.00 80 1014.7
20260507050004 43 316 3.0 9.0 0.00 0.05 0.00 80 1014.6
20260507045503 43 316 2.0 9.0 0.00 0.05 0.00 80 1014.6
20260507045005 44 316 2.0 7.0 0.00 0.05 0.00 80 1014.6
20260507044504 44 315 2.0 5.0 0.00 0.05 0.00 80 1014.7
20260507044005 44 315 2.0 5.0 0.00 0.05 0.00 79 1014.6
20260507043506 44 314 2.0 7.0 0.00 0.05 0.00 79 1014.6
20260507043003 44 316 1.0 7.0 0.00 0.05 0.00 79 1014.6
20260507042504 44 318 1.0 4.0 0.00 0.05 0.00 79 1014.5
20260507042003 44 318 1.0 4.0 0.00 0.05 0.00 78 1014.5
20260507041503 44 318 2.0 5.0 0.00 0.05 0.00 78 1014.5
20260507041004 44 318 2.0 5.0 0.00 0.05 0.00 78 1014.5
20260507040504 45 318 2.0 5.0 0.00 0.05 0.00 78 1014.6
20260507040004 45 318 2.0 5.0 0.00 0.05 0.00 77 1014.6
20260507035503 45 318 2.0 5.0 0.00 0.05 0.05 77 1014.6
20260507035005 45 320 2.0 5.0 0.00 0.05 0.05 77 1014.6
20260507034506 45 322 1.0 4.0 0.00 0.06 0.05 77 1014.6
20260507034003 45 322 1.0 4.0 0.00 0.06 0.05 77 1014.6
20260507033504 45 322 1.0 2.0 0.00 0.06 0.05 76 1014.5
20260507033004 46 321 0.0 2.0 0.00 0.06 0.05 76 1014.5
20260507032504 46 321 0.0 2.0 0.00 0.06 0.05 76 1014.6
20260507032003 46 321 1.0 2.0 0.00 0.06 0.05 75 1014.6
20260507031503 46 321 1.0 3.0 0.00 0.06 0.05 75 1014.5
20260507031004 46 321 1.0 3.0 0.00 0.06 0.05 74 1014.5
20260507030504 46 321 1.0 3.0 0.00 0.06 0.05 74 1014.5
20260507030004 46 321 1.0 3.0 0.00 0.06 0.05 73 1014.5
20260507025504 47 321 1.0 4.0 0.00 0.06 0.05 73 1014.5
20260507025004 47 321 1.0 4.0 0.00 0.07 0.05 73 1014.4
20260507024505 47 321 0.0 4.0 0.00 0.07 0.05 72 1014.4
20260507024003 47 321 0.0 4.0 0.00 0.07 0.05 72 1014.3
20260507023503 48 320 1.0 3.0 0.00 0.07 0.05 71 1014.3
20260507023003 48 320 0.0 3.0 0.00 0.07 0.05 71 1014.3
20260507022505 48 320 0.0 4.0 0.00 0.07 0.05 70 1014.3
20260507022003 48 320 0.0 4.0 0.00 0.07 0.05 69 1014.3
20260507021505 48 320 0.0 3.0 0.00 0.07 0.05 69 1014.3
20260507021004 49 320 0.0 3.0 0.00 0.07 0.05 68 1014.1
20260507020503 49 320 0.0 3.0 0.00 0.07 0.05 67 1014.1
20260507020004 50 320 0.0 3.0 0.00 0.07 0.05 67 1014.2
20260507015503 50 321 1.0 3.0 0.00 0.07 0.05 67 1014.0
20260507015003 50 321 1.0 3.0 0.00 0.08 0.05 66 1014.1
20260507014505 50 321 1.0 3.0 0.00 0.08 0.05 65 1014.1
20260507014003 51 320 0.0 2.0 0.00 0.08 0.05 64 1014.0
20260507013503 51 320 0.0 2.0 0.00 0.08 0.05 63 1014.0
20260507013003 52 320 0.0 3.0 0.00 0.08 0.05 62 1014.0
20260507012504 52 321 1.0 3.0 0.00 0.08 0.05 62 1014.0
20260507012003 52 321 1.0 3.0 0.00 0.08 0.05 61 1014.0
20260507011503 53 321 1.0 3.0 0.00 0.08 0.05 60 1014.0
20260507011003 53 321 1.0 4.0 0.00 0.08 0.05 59 1013.9
20260507010504 54 322 2.0 5.0 0.00 0.08 0.05 58 1013.8
20260507010004 54 323 2.0 5.0 0.00 0.09 0.05 57 1013.8
20260507005503 54 324 2.0 5.0 0.00 0.09 0.05 56 1013.7
20260507005003 55 324 2.0 5.0 0.00 0.09 0.05 56 1013.7
20260507004503 55 325 2.0 7.0 0.00 0.09 0.05 54 1013.6
20260507004003 55 321 3.0 10.0 0.00 0.09 0.05 53 1013.6
20260507003504 55 317 3.0 10.0 0.00 0.09 0.05 52 1013.5
20260507003004 55 309 3.0 10.0 0.00 0.09 0.05 52 1013.4
20260507002503 55 306 4.0 11.0 0.00 0.09 0.05 50 1013.3
20260507002003 56 308 4.0 11.0 0.00 0.09 0.05 51 1013.3
20260507001504 56 312 5.0 12.0 0.00 0.09 0.05 50 1013.2
20260507001003 56 315 5.0 12.0 0.00 0.10 0.05 49 1013.2
20260507000503 56 309 3.0 12.0 0.00 0.10 0.05 50 1013.1
20260507000003 56 299 3.0 10.0 0.00 0.10 0.05 50 1013.0
20260506235503 56 297 5.0 10.0 0.00 0.10 0.05 49 1013.0
20260506235004 56 293 5.0 10.0 0.00 0.10 0.05 48 1012.9
20260506234504 57 305 6.0 14.0 0.00 0.10 0.05 47 1013.0
20260506234003 57 311 5.0 14.0 0.00 0.10 0.05 46 1013.0
20260506233503 57 292 5.0 13.0 0.00 0.11 0.05 47 1012.9
20260506233004 57 293 5.0 13.0 0.00 0.11 0.05 46 1013.1
20260506232504 57 311 4.0 12.0 0.00 0.11 0.05 48 1013.0
20260506232005 57 309 5.0 12.0 0.00 0.11 0.05 45 1013.1
20260506231504 57 306 4.0 12.0 0.00 0.11 0.05 46 1013.1
20260506231003 58 308 5.0 12.0 0.00 0.11 0.05 46 1013.0
20260506230503 58 309 6.0 16.0 0.00 0.11 0.05 46 1013.1
20260506230003 58 299 7.0 16.0 0.00 0.11 0.05 44 1013.1
20260506225505 58 294 7.0 15.0 0.00 0.12 0.05 44 1013.0
20260506225003 58 300 7.0 15.0 0.00 0.12 0.05 47 1013.0
20260506224503 58 304 5.0 14.0 0.00 0.12 0.05 46 1013.0
20260506224003 58 308 2.0 11.0 0.00 0.12 0.05 45 1013.0
20260506223504 58 297 5.0 13.0 0.00 0.12 0.05 47 1013.0
20260506223003 58 299 7.0 16.0 0.00 0.12 0.05 48 1013.1
20260506222503 58 297 5.0 16.0 0.00 0.13 0.05 51 1013.2
20260506222004 58 299 4.0 11.0 0.00 0.13 0.05 53 1013.3
20260506221505 58 315 5.0 10.0 0.00 0.13 0.05 55 1013.2
20260506221004 57 315 7.0 13.0 0.00 0.13 0.05 54 1013.3
20260506220503 57 314 6.0 13.0 0.00 0.13 0.05 53 1013.3
20260506220004 57 309 5.0 14.0 0.00 0.13 0.05 54 1013.4
20260506215504 57 301 5.0 14.0 0.01 0.14 0.05 55 1013.3
20260506215004 57 301 4.0 10.0 0.01 0.14 0.05 56 1013.3
20260506214503 57 309 5.0 13.0 0.01 0.14 0.05 55 1013.3
20260506214003 57 310 5.0 15.0 0.01 0.14 0.05 54 1013.3
20260506213504 58 314 5.0 15.0 0.01 0.14 0.05 52 1013.3
20260506213005 58 312 6.0 13.0 0.01 0.14 0.05 52 1013.3
20260506212504 58 306 7.0 13.0 0.01 0.15 0.05 52 1013.2
20260506212003 58 291 7.0 16.0 0.01 0.15 0.05 52 1013.1
20260506211503 58 282 7.0 16.0 0.01 0.15 0.05 53 1013.1
20260506211005 58 285 7.0 13.0 0.01 0.15 0.05 54 1013.1
20260506210504 58 291 6.0 13.0 0.01 0.15 0.05 54 1013.0
20260506210003 58 298 5.0 11.0 0.01 0.16 0.05 53 1013.0
20260506205504 58 286 5.0 10.0 0.00 0.15 0.04 52 1012.8
20260506205004 58 285 5.0 11.0 0.00 0.15 0.04 53 1012.9
20260506204505 58 296 5.0 12.0 0.00 0.16 0.04 52 1012.9
20260506204005 58 294 4.0 12.0 0.00 0.16 0.04 51 1012.9
20260506203504 58 295 5.0 12.0 0.00 0.16 0.04 51 1012.9
20260506203003 58 303 6.0 13.0 0.00 0.16 0.04 51 1012.9
20260506202504 58 302 5.0 13.0 0.00 0.16 0.04 51 1013.0
20260506202003 58 291 5.0 13.0 0.00 0.17 0.04 52 1012.9
20260506201505 58 278 4.0 10.0 0.00 0.17 0.04 54 1013.1
20260506201004 58 273 5.0 11.0 0.00 0.17 0.04 54 1013.1
20260506200503 58 287 6.0 12.0 0.00 0.18 0.04 53 1013.0
20260506200003 58 296 5.0 12.0 0.00 0.18 0.04 53 1013.1
20260506195505 58 307 4.0 11.0 0.00 0.18 0.04 54 1013.1
20260506195003 58 313 2.0 11.0 0.00 0.19 0.04 51 1013.2
20260506194503 58 301 1.0 6.0 0.00 0.19 0.04 54 1013.1
20260506194004 58 302 2.0 10.0 0.00 0.19 0.04 53 1013.2
20260506193504 58 281 4.0 10.0 0.00 0.20 0.04 51 1013.2
20260506193003 58 280 4.0 10.0 0.00 0.20 0.04 50 1013.2
20260506192503 58 290 3.0 10.0 0.00 0.20 0.04 53 1013.1
20260506192004 58 298 1.0 6.0 0.00 0.21 0.04 55 1013.2
20260506191503 58 300 1.0 6.0 0.00 0.21 0.04 54 1013.1
20260506191005 58 300 3.0 9.0 0.00 0.22 0.04 54 1013.1
20260506190503 58 287 4.0 9.0 0.00 0.22 0.04 53 1013.1
20260506190004 58 280 4.0 9.0 0.00 0.23 0.04 52 1013.1